Dewpoint
51 52 52 53 54 54 54 54 53 53 53 53 54 54 54 54 54 51 44 51 51 52 53 47 46 40 41 40 38 37 32 26 21 18 18 17 11 9 27 29 34 47 54 57 62
51 51 52 52 53 53 53 54 54 54 54 53 54 54 54 55 49 42 51 51 51 52 48 44 45 42 38 37 35 35 31 25 21 15 15 21 24 25 23 25 29 50 57 62 62
51 50 51 51 52 52 52 53 53 54 54 54 55 54 55 53 45 41 49 50 50 51 48 45 44 42 38 37 34 32 31 30 28 24 26 30 31 28 28 28 31 40 57 61 62
51 51 52 53 52 52 52 52 53 53 54 54 54 54 55 49 33 43 48 47 47 47 46 44 41 41 37 35 34 31 32 29 28 28 29 30 31 30 30 29 30 33 52 60 60
51 52 52 52 52 52 52 52 52 53 53 54 54 54 49 40 36 41 44 43 43 46 44 42 39 37 36 37 36 34 31 30 31 29 30 30 30 30 29 31 31 34 40 58 57
51 51 50 51 51 51 51 52 52 52 52 53 53 54 45 37 39 40 42 42 42 45 44 44 40 41 37 36 35 35 34 33 32 31 29 28 28 26 25 27 28 29 41 50 57
50 50 50 50 50 50 50 50 51 52 53 53 53 50 44 40 39 40 39 41 44 46 45 46 45 44 42 39 39 37 34 34 32 31 30 30 27 25 24 24 24 25 35 41 51
49 49 49 49 49 50 50 50 50 51 52 53 53 48 40 41 41 38 39 41 42 43 46 47 45 45 43 40 38 34 34 31 31 29 31 30 27 26 23 21 20 23 25 38 44
50 50 49 49 49 50 50 50 51 52 51 52 50 44 38 42 39 39 39 39 41 41 43 44 44 40 38 36 33 32 30 30 30 30 29 29 27 28 26 20 14 15 22 25 45
50 50 49 50 50 50 50 50 50 50 51 49 47 41 41 35 38 40 39 40 40 40 39 40 40 35 35 35 27 31 31 33 32 30 32 31 27 26 25 23 14 13 15 20 46
50 50 50 50 50 50 49 46 40 43 42 36 35 37 33 38 42 40 39 38 38 37 34 34 32 30 30 31 34 35 31 30 29 30 30 32 31 29 28 23 20 19 21 22 26
49 50 51 50 50 50 49 38 42 42 38 37 35 35 35 39 36 38 41 36 34 32 32 32 30 32 31 31 30 27 26 26 28 30 30 30 30 31 28 27 22 19 21 22 23
47 49 51 50 50 50 43 43 45 44 36 32 37 36 37 39 36 35 38 35 34 32 30 30 30 30 30 29 26 27 27 27 27 29 31 31 30 31 29 28 26 22 18 20 24
48 50 51 51 48 44 44 46 46 44 34 34 33 38 40 40 37 39 40 38 34 32 32 31 30 30 29 27 26 27 28 29 29 28 26 29 26 26 25 25 25 22 19 19 21
46 49 51 51 45 42 45 46 45 43 10 29 33 42 39 38 36 39 42 39 35 33 33 29 30 31 31 31 30 29 34 33 32 32 30 27 26 25 21 20 23 22 19 20 27
45 47 51 47 46 43 46 46 42 34 19 21 32 34 35 37 36 38 39 40 38 34 34 33 33 33 32 32 33 35 34 33 33 32 24 25 24 20 20 17 17 19 18 24 28
46 48 50 47 44 47 46 43 35 21 22 19 23 28 27 24 29 35 34 34 32 29 29 29 29 33 33 31 35 33 29 24 22 23 20 22 25 23 22 20 22 25 25 19 33
47 48 48 46 46 47 44 37 25 26 16 22 22 22 22 23 27 32 33 29 30 31 28 27 24 31 32 31 31 32 31 25 20 21 23 22 19 19 21 26 27 28 29 27 43
47 47 44 46 48 46 41 31 28 29 20 21 20 18 20 24 24 27 26 28 26 31 26 23 25 30 33 34 34 32 29 30 29 27 21 22 23 21 23 25 28 28 29 35 44
45 44 42 46 47 44 37 30 28 25 23 24 19 17 16 17 19 20 19 26 26 26 29 26 21 26 31 33 35 33 32 28 29 21 17 17 19 20 22 24 29 28 28 33 45
44 40 46 46 46 40 32 33 31 29 26 25 22 19 18 17 21 20 18 23 23 28 29 27 25 25 30 30 29 33 31 29 27 25 20 16 20 21 23 27 31 29 31 35 43
42 35 46 46 38 35 32 31 31 28 27 27 28 26 23 22 22 20 18 20 24 26 24 27 26 22 21 32 32 32 30 30 29 27 27 27 22 22 28 32 32 32 33 35 41
37 35 45 44 35 34 33 31 32 28 28 28 27 27 26 24 20 20 19 25 26 25 24 25 23 18 22 28 29 29 28 30 31 33 27 23 19 25 30 32 33 35 36 39 41
38 27 41 42 39 36 34 30 28 31 29 28 27 26 25 23 24 22 21 23 27 27 28 25 21 18 15 14 20 19 25 29 29 28 26 27 24 22 28 30 33 36 38 39 40
40 29 31 34 34 35 34 32 30 26 29 28 26 25 23 20 18 18 18 19 25 27 26 27 22 21 20 20 20 19 18 18 27 29 26 25 24 24 27 29 33 35 36 36 36
39 34 29 28 29 27 34 32 31 29 27 24 25 22 24 22 18 17 19 18 18 24 23 25 20 19 17 17 15 13 16 17 18 23 28 28 28 28 26 29 31 33 32 31 30
44 42 38 32 25 24 24 28 30 28 27 27 24 25 22 22 24 25 26 24 22 24 23 22 20 18 16 18 20 15 14 14 15 18 18 18 19 22 22 26 28 29 27 26 26
Wind_Speed
12 12 13 14 14 14 15 17 18 19 20 20 19 20 20 19 23 10 3 6 10 16 18 14 16 9 6 9 12 9 8 13 17 20 20 22 26 22 5 5 7 2 9 12 30
13 13 13 14 15 16 16 17 17 18 19 20 20 20 20 19 18 5 3 8 13 15 13 14 13 16 8 11 4 8 11 11 16 20 16 18 22 17 4 10 11 7 18 25 25
13 13 14 14 16 17 17 17 17 17 18 19 20 20 21 21 9 4 3 10 13 14 12 13 10 11 11 13 12 8 19 20 27 23 12 14 18 15 9 8 9 7 23 25 20
11 12 13 14 15 16 16 17 18 17 18 18 19 19 23 9 7 5 7 9 13 10 12 10 7 5 7 10 13 18 19 21 21 20 15 12 16 19 14 15 13 13 10 22 20
11 12 12 13 14 15 16 17 17 17 17 17 17 16 10 7 4 5 6 11 12 10 11 11 11 10 12 10 14 19 16 16 21 15 13 17 22 19 20 23 21 10 4 18 16
11 11 12 12 13 14 15 16 17 16 16 16 15 13 8 11 2 7 11 10 10 10 11 12 7 12 12 15 15 14 19 17 14 17 14 17 22 19 16 16 22 17 7 12 24
12 12 13 13 13 14 14 15 15 16 15 14 12 9 9 13 4 9 7 7 6 6 11 13 12 9 8 9 10 16 18 19 20 17 17 14 23 29 25 22 26 20 16 12 14
13 13 14 14 15 16 16 16 15 15 16 14 8 6 7 3 5 6 7 7 7 8 5 9 9 5 4 8 12 16 13 11 15 22 23 17 25 20 23 27 29 26 20 14 15
15 15 16 17 18 18 19 20 17 13 11 6 5 4 6 1 4 6 4 7 11 5 3 7 6 6 4 5 6 4 11 16 13 5 8 15 24 20 25 26 27 28 23 20 17
15 17 18 19 20 20 22 22 11 4 4 6 6 5 5 5 5 6 4 4 4 10 7 4 3 7 5 2 6 5 9 7 13 12 11 17 21 19 25 23 21 22 28 25 22
15 17 19 20 21 20 15 4 2 1 4 6 11 13 11 6 3 5 3 6 8 7 5 2 5 12 14 11 9 11 14 19 20 19 19 17 23 23 21 23 22 18 16 20 17
17 16 18 21 23 20 12 3 3 1 9 12 12 10 11 3 5 8 1 3 6 9 8 7 15 15 11 7 11 14 17 20 20 19 16 21 26 27 24 23 22 22 19 21 22
17 18 18 21 23 10 3 4 2 4 5 3 1 5 1 3 5 2 2 5 8 10 7 9 14 22 14 12 13 14 16 17 22 20 18 18 25 26 32 29 24 23 22 23 19
18 18 18 23 7 7 1 4 4 3 4 3 1 2 2 2 4 2 1 3 3 6 9 9 5 7 11 13 10 15 10 17 18 14 9 1 9 16 22 30 29 24 23 23 19
16 16 16 14 10 4 5 7 6 3 6 1 3 2 0 5 7 4 2 3 7 12 3 8 9 9 13 12 9 8 9 15 16 17 14 21 12 12 15 15 23 23 20 21 15
15 15 12 4 5 5 7 9 5 1 4 2 3 2 4 9 4 2 3 4 7 8 10 23 11 10 7 12 4 7 10 16 15 9 10 25 16 9 10 4 6 22 25 22 21
16 14 11 9 3 9 7 4 4 2 1 2 2 3 10 13 7 6 5 7 5 6 5 13 9 5 6 6 1 3 5 4 3 6 8 4 12 18 25 18 5 8 13 22 22
16 17 7 7 2 5 4 3 4 3 5 3 3 11 8 6 4 5 5 12 12 10 6 5 8 9 9 6 3 3 3 6 5 2 3 1 6 5 4 9 10 10 13 15 18
18 4 3 3 5 2 4 4 5 5 0 4 12 4 7 5 4 5 10 10 1 10 4 7 5 3 8 5 7 2 6 6 7 8 5 5 5 6 9 8 11 12 10 9 13
8 6 4 7 3 3 4 6 5 1 1 2 3 3 4 10 8 5 7 6 2 2 6 4 10 7 5 1 15 9 7 5 3 5 5 4 1 5 13 13 7 5 3 5 15
4 4 2 3 2 5 6 8 7 3 4 5 6 7 7 11 5 9 7 5 2 5 5 7 3 4 2 7 4 5 5 6 7 7 4 7 1 5 7 8 9 6 7 12 15
3 5 2 4 4 6 10 4 3 5 4 7 5 7 10 8 9 8 6 4 5 3 4 7 4 8 13 5 4 3 7 8 6 4 3 2 7 2 5 7 6 6 8 9 14
4 4 2 3 6 13 13 12 6 5 8 4 5 9 2 4 4 11 7 5 3 2 3 3 6 8 1 0 1 3 4 11 7 3 8 5 3 4 4 6 6 8 10 14 16
5 4 3 5 8 6 7 11 14 10 10 7 9 7 7 7 13 8 8 1 5 4 1 2 5 10 13 19 17 14 11 12 11 6 3 9 13 2 5 5 7 9 11 14 15
4 6 5 6 10 17 14 11 16 7 6 5 5 14 8 6 8 12 10 9 8 5 2 3 8 14 20 24 21 25 23 16 18 18 9 6 7 6 8 9 7 11 14 14 16
4 3 4 13 13 14 15 8 15 15 16 7 14 9 16 13 10 9 10 9 10 7 4 6 7 14 21 16 11 15 13 12 14 15 17 19 24 16 14 13 9 11 13 15 16
4 4 5 7 13 14 18 16 13 12 11 19 8 13 14 17 13 11 7 8 13 4 4 4 5 8 8 12 18 6 5 4 5 5 7 11 10 17 12 11 12 13 14 16 16
Wind_Direction
350 348 345 349 348 351 355 356 357 353 348 338 329 321 317 322 313 263 12 3 337 334 323 316 311 282 289 267 265 288 257 262 256 258 276 274 293 299 345 216 331 139 65 128 140
348 344 342 345 342 345 348 349 346 343 339 334 329 322 318 326 312 300 87 343 334 333 324 327 320 326 304 271 241 214 244 268 281 291 294 321 325 328 352 298 266 86 86 116 137
352 344 343 341 340 338 339 335 334 333 333 334 332 325 319 324 302 85 27 340 332 326 310 304 292 297 290 273 254 243 255 276 289 295 343 332 320 313 344 295 312 346 145 143 150
356 349 349 347 339 334 328 326 324 326 331 334 333 327 319 313 358 63 15 335 329 317 311 295 288 280 276 293 261 244 266 280 289 296 316 304 309 313 310 288 311 2 124 146 163
5 0 354 346 339 334 329 323 319 322 325 327 331 328 334 309 326 39 346 339 312 345 314 308 295 281 262 269 306 308 267 266 284 291 297 300 287 282 285 294 312 346 352 161 174
8 2 354 346 335 331 327 322 318 316 316 319 327 322 309 296 14 340 352 331 342 333 330 312 301 288 292 279 273 293 304 294 291 289 272 264 273 280 259 270 274 274 234 214 175
355 354 349 342 333 326 319 314 313 312 309 308 315 306 293 259 334 349 341 332 345 320 321 317 327 263 331 304 333 299 281 280 273 251 245 257 257 252 263 265 272 275 221 223 205
344 341 338 334 329 323 314 307 299 297 297 296 287 297 261 70 345 301 350 337 348 318 315 305 302 270 248 291 296 284 287 276 273 266 228 224 259 264 244 241 244 254 265 213 221
345 340 336 331 326 320 311 301 291 289 281 249 252 207 281 111 261 350 326 324 320 297 268 296 295 269 290 324 327 280 279 286 302 256 304 236 256 262 256 255 234 236 238 249 194
342 337 333 330 328 322 313 294 278 281 222 199 251 284 238 327 331 315 283 301 313 308 292 248 252 288 275 159 282 287 310 302 308 307 326 299 283 261 275 286 244 232 223 238 186
338 335 332 331 327 323 326 321 302 197 223 244 294 265 296 349 200 211 301 300 259 277 312 268 305 280 273 256 239 248 278 285 287 292 303 280 283 284 272 264 264 267 229 242 225
338 333 334 330 327 317 298 29 86 235 306 274 271 273 281 342 287 206 49 286 314 310 323 301 270 268 285 307 284 276 278 281 286 281 272 275 279 281 265 260 239 237 245 244 247
334 337 338 330 325 306 4 50 306 280 275 310 206 275 318 186 276 304 198 308 280 292 292 268 265 294 274 267 279 283 281 288 276 280 282 266 276 269 260 255 250 230 227 239 241
340 336 340 333 314 342 297 335 297 291 313 242 158 108 179 257 269 53 195 295 273 292 324 276 285 308 307 291 285 277 281 302 302 295 264 328 291 295 276 232 228 220 219 229 238
331 331 334 333 302 306 348 313 306 258 344 243 150 87 139 234 333 168 72 202 279 298 317 277 313 332 303 261 276 257 355 309 309 293 286 277 273 272 300 229 212 217 213 222 219
326 328 341 337 232 303 317 308 287 324 282 207 148 249 270 204 224 161 213 202 281 286 248 258 263 284 249 298 294 311 301 279 269 264 244 250 221 280 273 310 220 197 202 197 199
321 319 310 291 319 332 317 276 328 217 147 166 267 211 283 278 238 192 240 228 230 311 358 315 270 179 225 277 78 13 274 270 208 219 242 20 202 245 287 316 44 354 340 189 185
314 308 282 245 324 318 279 277 255 270 264 106 263 277 274 305 231 219 280 271 231 227 300 305 324 185 160 214 235 226 245 292 302 276 333 8 227 254 105 57 24 6 351 171 149
313 267 244 167 227 256 278 244 244 237 9 320 309 271 276 188 236 247 250 241 303 189 248 320 280 141 186 164 162 169 230 243 299 241 276 206 251 299 85 57 33 21 7 68 126
323 296 243 124 192 249 249 248 260 102 327 239 284 268 285 315 304 276 284 141 209 241 218 294 298 325 96 275 212 212 323 329 259 303 312 326 267 49 14 7 19 359 345 72 101
280 270 66 142 201 233 234 239 281 257 196 228 272 286 265 310 284 296 271 172 154 178 259 275 248 286 227 215 248 210 259 234 270 244 293 316 103 347 342 2 337 59 100 98 102
275 253 153 195 196 229 231 234 347 273 210 263 271 264 265 289 290 281 260 331 114 160 247 208 289 277 259 49 51 306 266 265 271 336 344 255 285 18 13 7 353 81 111 119 112
253 243 155 244 227 235 246 254 218 264 233 219 253 228 315 274 284 281 277 109 134 227 293 44 252 298 260 356 352 225 207 239 237 273 240 289 296 78 98 58 68 96 99 106 105
277 245 145 204 287 283 295 287 267 202 261 247 268 258 249 254 230 263 289 285 141 240 28 345 256 241 255 274 312 282 256 229 222 244 270 235 265 157 116 97 107 116 115 117 123
238 254 217 209 239 230 252 281 294 276 217 237 262 230 215 260 270 238 268 282 197 165 221 235 267 261 268 277 283 276 272 258 221 234 251 293 218 6 141 142 143 144 142 140 134
227 274 288 259 277 273 215 220 247 256 264 244 234 269 232 244 244 287 319 307 268 168 222 205 276 311 299 281 243 275 280 260 248 244 245 265 281 287 117 113 128 125 128 124 116
220 300 329 273 254 254 240 249 245 268 262 237 253 262 267 255 279 293 286 279 274 237 243 219 283 332 283 312 310 300 281 284 208 239 254 267 286 128 129 150 152 142 130 118 114